AirNav   Pilot Hours Calculator
 
 1106 users online  

9NR7 Triple F Airpark
Salemburg, North Carolina, USA

GOING TO SALEMBURG?


FAA INFORMATION EFFECTIVE 15 JULY 2021

Location

FAA Identifier: 9NR7
Lat/Long: 35-01-06.0000N 078-33-57.0000W
35-01.100000N 078-33.950000W
35.0183333,-78.5658333
(estimated)
Elevation: 148 ft. / 45 m (estimated)
From city: 4 miles W of SALEMBURG, NC
Time zone: UTC -4 (UTC -5 during Standard Time)
Zip code: 28318

Airport Operations

Airport use: Private use. Permission required prior to landing
Activation date: 10/2008
Control tower: no
ARTCC: WASHINGTON CENTER
FSS: RALEIGH FLIGHT SERVICE STATION
Attendance: UNATNDD
Wind indicator: yes
Segmented circle: no

Airport Communications

WX AWOS-3 at CTZ (10 nm E): 119.125 (910-592-7488)
WX ASOS at FAY (16 nm W): 121.25 (910-484-1546)

Nearby radio navigation aids

VOR radial/distance  VOR name  Freq  Var
FAYr087/15.3FAYETTEVILLE VOR/DME108.8004W

 
NDB name  Hdg/Dist  Freq  Var  ID
CLINTON294/10.441209WCTZ -.-. - --..
FORT BRAGG128/14.139307WFGP ..-. --. .--.
POPE130/22.833807WPOB .--. --- -...
HARNETT176/25.441708WHQT .... --.- -
ROBESON053/34.435908WRSY .-. ... -.--

Airport Services

Runway Information

Runway 9/27

Dimensions: 2200 x 70 ft. / 671 x 21 m
Surface: turf
RUNWAY 9  RUNWAY 27
Traffic pattern: leftleft
Obstructions: 50 ft. trees, 200 ft. from runwaynone

Airport Ownership and Management from official FAA records

Ownership: Privately-owned
Owner: M. D. FAIRCLOTH
3455 AUTRYVILLE RD.
AUTRYVILLE, NC 28318
Phone 910-531-3826
Manager: FREDDIE HERRING
760 MURPHY RD.
CLINTON, NC 28328
Phone 910-990-6324

Airport Operational Statistics

Aircraft based on the field: 1
Single engine airplanes: 1
    

Additional Remarks

FOR CD CTC WASHINGTON ARTCC AT 703-771-3587.

Instrument Procedures

There are no published instrument procedures at 9NR7.

Some nearby airports with instrument procedures:

KCTZ - Clinton-Sampson County Airport (10 nm E)
KFAY - Fayetteville Regional Airport/Grannis Field (16 nm W)
KFBG - Simmons Army Airfield (19 nm W)
KHRJ - Harnett Regional Jetport Airport (23 nm N)
KPOB - Pope Army Airfield (24 nm NW)
 
Loc | Ops | Rwys | IFR | FBO | Links
Com | Nav | Svcs | Stats | Notes
Aerial photo
No photo
 
Sectional chart

 
Airport distance calculator
Flying to Triple F Airpark? Find the distance to fly.

From to 9NR7

Sunrise and sunset
Times for 30-Jul-2021
 Local
(UTC-4)
 Zulu
(UTC)
Morning civil twilight05:5509:55
Sunrise06:2310:23
Sunset20:1800:18
Evening civil twilight20:4600:46

Current date and time
Zulu (UTC)  31-Jul-2021 00:07:00
Local (UTC-4)  30-Jul-2021 20:07:00
 
METAR
KCTZ 
10nm E 
302355Z AUTO 00000KT 10SM CLR 30/26 A2989 RMK AO2 T03020263 10342 20301
KFAY 
16nm W 
302353Z 20005KT 10SM CLR 32/24 A2988 RMK AO2 SLP111 T03170239 10350 20317 55003
KFBG 
18nm W 
302356Z AUTO 00000KT 10SM CLR 30/29 A2987 RMK AO2 SLP115 60000 T02950289 10345 20295 56002 $
TAF
KFAY 
16nm W 
301734Z 3018/3118 23008KT P6SM SCT250 FM302000 25009KT P6SM VCTS SCT050CB SCT250 FM310100 VRB04KT P6SM VCSH SCT060 SCT250 TEMPO 3109/3113 4SM BR BKN007 FM311300 02005KT P6SM SCT025 SCT250
KFBG 
18nm W 
301700Z 3017/3123 19006KT 9999 FEW170 SCT200 QNH2987INS BECMG 3018/3019 27012KT 9000 -SHRA SCT055 QNH2990INS TEMPO 3018/3100 VRB20G30KT 3200 TSRA BKN050CB BECMG 3100/3101 VRB06KT 9000 BR SCT045 QNH2988INS BECMG 3106/3107 VRB06KT 8000 BR BKN020 QNH2986INS BECMG 3111/3112 VRB06KT 8000 BR OVC005 QNH1998INS TX33/3018Z TN24/3111Z
NOTAMs
Click for the latest NOTAMs
NOTAMs are issued by the DoD/FAA and will open in a separate window not controlled by AirNav.

 

 
 

Would you like to see your business listed on this page?

 If your business provides an interesting product or service to pilots, flight crews, aircraft, or users of the Triple F Airpark, you should consider listing it here.  To start the listing process, click on the button below
 
Add a business
 

Other Pages about Triple F Airpark

Update a link
 
Copyright © AirNav, LLC. All rights reserved. Privacy Policy  Contact